Columbia Owens, SC

5:44 AM EST on November 13, 2019 (GMT -0500)
Columbia Owens Downtown

Weather History for KCUB - September, 2019

Change the Weather History Date:

Saturday, September 14, 2019

  Actual Average Record
Temperature  
Mean Temperature 83 °F 77 °F  
Max Temperature 90 °F 86 °F 95 °F (2011)
Min Temperature 75 °F 67 °F 55 °F (2015)
Degree Days  
Heating Degree Days 0 0  
Month to date heating degree days 0 0  
Since 1 July heating degree days 0 0  
Cooling Degree Days 18 12  
Month to date cooling degree days 262 183  
Year to date cooling degree days 2385 2001  
Growing Degree Days 32 (Base 50)    
Moisture  
Dew Point 70 °F    
Average Humidity 74    
Maximum Humidity 87    
Minimum Humidity 50    
Precipitation  
Precipitation 0.00 in 0.14 in 1.05 in (2002)
Month to date precipitation 0.78 1.97  
Year to date precipitation 23.96 33.82  
Sea Level Pressure  
Sea Level Pressure 30.20 in    
Wind  
Wind Speed 3 mph (ENE)    
Max Wind Speed 9 mph    
Max Gust Speed 14 mph    
Visibility 10 miles    
Events      
T = Trace of Precipitation, MM = Missing Value Source: NWS Daily Summary

Daily Weather History Graph

Daily Weather History Graph

Search for Another Location

Airport or City:

Astronomy

Sep. 14, 2019 Rise Set
Actual Time 7:06 AM EDT 7:32 PM EDT
Civil Twilight 6:41 AM EDT 7:57 PM EDT
Nautical Twilight 6:11 AM EDT 8:26 PM EDT
Astronomical Twilight 5:41 AM EDT 8:56 PM EDT
Moon 8:12 PM EDT (9/14) 7:20 AM EDT (9/14)
Length of Visible Light 13h 15m
Length of Day
12h 25m
Full, 100% of the Moon is Illuminated
Sep 14
Full
Sep 21
Last Quarter
Sep 28
New
Oct 5
First Quarter
Oct 13
Full

Hourly Weather History & Observations

Time (EDT) Temp. Heat Index Dew Point Humidity Pressure Visibility Wind Dir Wind Speed Gust Speed Precip Events Conditions
12:53 AM 75.9 °F - 71.1 °F 85% 30.22 in 10.0 mi Calm Calm - N/A   Mostly Cloudy
1:25 AM 75.9 °F - 71.1 °F 85% 30.23 in 10.0 mi Calm Calm - N/A   Overcast
1:33 AM 75.9 °F - 71.1 °F 85% 30.23 in 10.0 mi Calm Calm - N/A   Overcast
1:53 AM 75.9 °F - 71.1 °F 85% 30.22 in 10.0 mi Calm Calm - N/A   Overcast
2:14 AM 75.0 °F - 71.1 °F 87% 30.22 in 10.0 mi Variable 3.5 mph - N/A   Mostly Cloudy
2:53 AM 75.9 °F - 72.0 °F 87% 30.20 in 10.0 mi East 5.8 mph - N/A   Overcast
3:53 AM 75.9 °F - 71.1 °F 85% 30.19 in 10.0 mi Variable 3.5 mph - N/A   Overcast
4:53 AM 75.9 °F - 71.1 °F 85% 30.19 in 10.0 mi ENE 5.8 mph - N/A   Overcast
5:13 AM 75.9 °F - 70.0 °F 82% 30.20 in 10.0 mi Calm Calm - N/A   Overcast
5:22 AM 75.9 °F - 70.0 °F 82% 30.20 in 10.0 mi ENE 4.6 mph - N/A   Overcast
6:53 AM 75.0 °F - 70.0 °F 84% 30.22 in 10.0 mi Variable 3.5 mph - N/A   Overcast
7:53 AM 75.0 °F - 69.1 °F 82% 30.23 in 10.0 mi Variable 5.8 mph - N/A   Overcast
8:53 AM 75.0 °F - 69.1 °F 82% 30.24 in 10.0 mi Variable 3.5 mph - N/A   Overcast
9:53 AM 75.9 °F - 70.0 °F 82% 30.26 in 10.0 mi Variable 3.5 mph - N/A   Overcast
10:53 AM 77.0 °F - 69.1 °F 76% 30.26 in 10.0 mi ENE 3.5 mph - N/A   Overcast
11:12 AM 77.0 °F - 70.0 °F 79% 30.26 in 10.0 mi East 5.8 mph - N/A   Overcast
11:53 AM 81.0 °F 84.4 °F 70.0 °F 69% 30.25 in 10.0 mi East 3.5 mph - N/A   Mostly Cloudy
12:43 PM 82.0 °F 85.5 °F 69.1 °F 65% 30.24 in 10.0 mi Variable 5.8 mph - N/A   Scattered Clouds
12:53 PM 82.9 °F 86.5 °F 69.1 °F 63% 30.23 in 10.0 mi Variable 5.8 mph - N/A   Partly Cloudy
1:53 PM 84.9 °F 88.2 °F 68.0 °F 57% 30.21 in 10.0 mi Variable 6.9 mph - N/A   Scattered Clouds
2:53 PM 87.1 °F 91.3 °F 69.1 °F 55% 30.19 in 10.0 mi East 6.9 mph - N/A   Scattered Clouds
3:53 PM 88.0 °F 92.1 °F 69.1 °F 53% 30.16 in 10.0 mi Variable 3.5 mph - N/A   Mostly Cloudy
4:53 PM 89.1 °F 92.9 °F 68.0 °F 50% 30.15 in 10.0 mi Variable 3.5 mph - N/A   Partly Cloudy
5:53 PM 87.1 °F 90.6 °F 68.0 °F 53% 30.15 in 10.0 mi ENE 4.6 mph - N/A   Scattered Clouds
6:53 PM 86.0 °F 89.4 °F 68.0 °F 55% 30.15 in 10.0 mi Variable 4.6 mph - N/A   Scattered Clouds
7:53 PM 82.9 °F 85.8 °F 68.0 °F 60% 30.15 in 10.0 mi Calm Calm - N/A   Clear
8:53 PM 81.0 °F 84.1 °F 69.1 °F 67% 30.16 in 10.0 mi Calm Calm - N/A   Clear
9:53 PM 79.0 °F - 69.1 °F 72% 30.16 in 10.0 mi Calm Calm - N/A   Clear
10:53 PM 77.0 °F - 70.0 °F 79% 30.16 in 10.0 mi Calm Calm - N/A   Clear
11:53 PM 75.9 °F - 70.0 °F 82% 30.16 in 10.0 mi Calm Calm - N/A   Clear